Wind_Speed
38 37 35 33 33 33 34 34 34 34 37 38 37 34 32 32 33 32 31 30 29 27 25 25 24 22 22 22 23 24 25 27 29 31 33 35 36 35 36 36 36 34 31 31
38 36 34 35 35 35 35 35 34 35 39 42 42 39 35 34 35 34 34 33 31 29 29 28 26 25 24 24 24 25 27 28 30 33 36 39 40 39 40 39 37 33 30 30
38 35 34 35 36 36 35 35 33 34 39 43 43 42 39 37 36 35 34 34 33 32 31 29 28 27 25 25 26 27 28 31 34 37 39 41 42 42 43 39 36 33 30 28
38 36 35 36 36 35 34 32 32 34 38 41 43 43 39 38 37 35 35 34 34 33 32 31 30 28 27 27 28 30 32 35 37 39 41 43 44 46 43 38 36 33 30 29
36 35 35 35 34 34 31 31 33 35 37 39 40 41 38 36 36 35 35 35 35 34 33 31 31 30 30 31 32 35 37 38 39 41 43 45 47 48 43 39 35 33 32 30
35 35 35 34 33 33 32 33 34 35 36 37 36 38 38 35 35 34 36 36 36 35 34 33 33 33 33 34 36 38 40 40 41 43 45 46 46 44 42 39 36 34 32 32
33 34 34 35 35 34 33 33 34 34 35 33 32 35 36 34 34 34 35 36 36 35 34 33 34 35 36 37 38 40 41 42 43 44 45 46 45 44 42 40 39 37 37 36
30 31 32 33 33 32 31 32 33 32 31 29 30 33 33 33 33 33 33 34 34 34 33 33 34 35 36 36 38 39 40 42 43 44 44 43 43 43 43 43 43 42 41 42
25 26 28 29 28 29 30 31 30 30 28 28 29 31 32 31 30 31 31 32 32 32 32 32 33 33 34 34 36 38 39 41 42 43 44 46 46 45 46 47 47 46 46 47
23 23 24 26 28 30 31 31 30 30 28 27 28 28 28 28 28 29 30 30 30 30 30 30 31 32 33 34 35 37 39 41 43 45 46 47 48 48 48 49 50 50 51 51
21 22 24 27 30 31 32 31 31 30 28 27 27 26 26 27 28 28 29 29 29 30 31 32 33 34 35 36 37 39 41 43 46 47 49 49 51 52 52 53 54 54 55 57
20 22 26 29 31 32 32 32 31 30 28 27 26 26 26 27 28 29 29 30 31 32 32 33 34 36 37 38 40 42 44 46 48 49 51 52 54 55 56 57 57 58 59 59
19 22 25 29 31 32 33 32 31 30 29 29 28 29 29 29 30 30 31 32 33 34 35 36 37 38 39 41 43 45 47 50 52 54 55 57 58 59 59 60 61 61 62 61
21 22 25 28 30 31 32 32 33 32 32 32 32 33 33 34 34 34 35 35 36 37 38 39 40 41 43 45 47 49 52 54 56 57 59 61 61 62 63 63 63 63 62 61
23 24 25 28 30 31 32 33 33 34 34 35 36 37 37 38 38 38 37 38 39 40 40 42 43 45 47 49 51 53 55 57 58 60 62 62 63 63 63 62 62 61 60 60
26 27 28 30 32 33 33 34 35 35 36 37 37 38 39 40 40 41 41 41 42 43 44 45 47 49 52 54 56 57 59 60 61 62 62 62 61 61 60 59 59 59 58 58
30 30 31 33 35 36 36 36 37 37 37 37 38 38 39 40 41 42 42 43 44 45 47 49 51 53 55 58 59 60 61 62 61 61 60 58 58 57 57 56 56 56 55 55
30 33 34 36 37 38 38 37 38 38 38 38 38 39 40 40 40 40 42 43 45 47 49 52 54 55 57 58 59 59 59 59 58 57 57 56 55 55 54 54 53 52 52 51
27 29 32 34 36 37 37 37 36 36 37 37 37 38 38 39 40 41 42 44 46 48 50 51 53 54 56 56 56 56 56 55 55 54 53 52 52 51 50 50 49 48 48 47
25 26 27 29 31 32 32 32 33 33 34 34 35 36 37 38 40 41 43 44 46 47 48 49 50 51 52 52 52 52 52 51 50 49 48 48 47 46 45 45 45 45 45 45
21 21 22 23 25 26 26 26 27 28 29 30 32 33 35 36 38 39 40 41 42 43 44 46 47 48 48 48 48 48 47 46 45 44 42 42 41 41 42 42 42 42 42 42
18 19 19 19 20 20 21 22 23 24 25 27 28 29 31 32 33 34 36 37 39 40 41 42 43 43 43 43 42 41 40 39 38 38 38 38 38 39 39 39 39 39 39 39
17 17 18 18 19 19 20 21 22 23 24 24 25 26 27 29 31 32 33 35 36 37 38 38 38 38 37 36 35 34 34 33 34 34 35 35 36 37 37 37 37 37 36 35
16 16 16 17 18 19 19 20 20 21 23 24 25 26 27 29 30 30 31 32 32 33 33 33 32 31 30 29 28 29 29 30 31 33 34 35 36 36 36 35 34 33 31 29
15 15 15 15 15 16 17 18 20 21 22 23 24 25 26 27 27 27 27 27 27 26 26 25 24 24 23 24 25 26 28 30 32 33 34 34 34 33 32 30 29 27 25 23
16 15 15 14 15 16 16 18 19 20 21 21 22 22 23 23 22 22 21 20 20 19 19 18 18 19 21 22 25 27 29 31 32 33 32 31 30 28 26 25 23 21 19 18
Wind_Direction
234 233 232 232 233 233 232 232 232 232 236 240 244 246 245 247 254 258 261 261 262 262 261 262 265 272 277 284 289 293 298 301 301 301 301 300 298 293 289 288 289 282 279 277
233 233 231 230 230 231 232 232 231 230 234 239 244 247 249 250 253 258 261 262 263 262 259 261 265 271 275 280 285 290 293 295 296 296 296 296 295 292 290 289 287 285 281 280
232 231 230 231 231 232 233 234 232 230 231 238 243 247 250 252 254 258 261 262 261 261 260 260 263 268 271 276 283 287 291 292 292 292 292 291 291 289 288 289 291 290 289 287
229 228 228 229 231 233 233 234 234 232 232 236 243 246 247 250 253 257 259 261 261 261 260 261 263 265 270 276 281 285 287 288 289 289 288 287 288 285 285 291 295 295 294 296
227 227 227 228 230 232 233 233 234 234 235 237 243 248 249 249 251 253 255 258 259 260 260 261 263 266 271 275 280 283 285 286 287 287 286 286 286 286 285 295 302 302 298 296
224 225 225 226 227 229 229 231 234 235 237 239 242 249 252 250 250 250 253 256 258 260 261 262 265 268 271 275 278 281 283 283 285 285 286 286 287 286 292 302 310 311 306 301
222 223 223 223 225 226 227 228 232 236 239 241 242 247 252 253 251 251 252 254 257 259 261 263 265 268 270 272 275 277 279 280 283 285 285 289 292 298 305 310 312 310 307 305
223 223 223 223 225 226 226 228 232 236 239 240 241 246 250 253 252 251 252 253 255 257 260 262 264 267 269 270 272 275 277 280 284 287 289 296 300 304 307 311 311 309 306 303
219 220 221 221 220 221 223 227 231 235 237 238 241 244 247 250 251 250 250 253 255 257 259 262 265 267 268 269 272 275 278 282 286 289 292 297 302 306 308 308 308 307 304 302
213 213 213 212 212 217 223 226 228 233 236 238 241 243 245 248 250 250 251 253 256 258 260 263 265 266 269 272 275 277 281 284 288 292 294 298 301 303 304 305 305 303 302 301
211 209 205 205 209 216 222 227 231 234 237 240 243 245 246 250 251 253 255 258 260 262 265 267 269 271 274 277 280 282 286 288 290 293 295 297 299 301 302 303 303 303 301 299
214 213 206 206 211 218 225 229 232 235 239 242 246 249 249 253 255 257 260 262 264 266 268 270 272 275 277 280 283 285 288 290 291 293 294 296 298 299 300 301 301 301 300 299
221 220 213 212 218 223 228 232 235 238 242 244 247 252 253 255 258 260 263 265 267 269 271 272 275 278 280 283 285 287 289 290 291 292 294 295 296 297 299 299 299 300 300 298
233 231 225 223 227 231 235 238 240 243 245 246 247 251 254 257 259 261 264 267 269 271 272 275 277 280 282 285 286 288 289 291 292 292 293 294 295 296 298 298 299 299 298 297
246 243 235 232 233 237 241 244 246 247 248 249 249 251 253 256 259 261 264 267 270 272 274 276 279 281 284 287 289 290 291 292 293 294 295 296 297 297 297 297 297 297 296 296
253 252 248 244 241 241 245 248 251 253 255 255 255 255 256 259 261 263 265 268 271 273 276 278 280 283 285 287 290 292 293 294 295 295 296 297 297 296 296 296 295 295 295 295
254 255 254 253 250 250 250 251 254 257 259 261 263 263 264 264 266 268 271 273 276 278 281 283 285 287 288 290 291 293 294 295 295 296 296 296 295 295 295 294 294 294 294 294
259 257 256 257 258 257 259 260 262 263 265 266 268 269 271 272 273 274 275 277 278 280 282 284 286 288 290 291 293 293 294 295 295 296 296 295 295 294 294 294 294 294 294 293
265 265 263 262 262 263 263 265 266 267 269 269 270 271 272 273 275 275 277 279 280 283 285 287 289 290 291 292 293 294 294 295 295 295 294 294 294 293 293 293 293 293 293 293
272 271 270 269 268 268 267 267 268 269 269 270 270 271 272 273 273 275 277 279 281 284 286 288 289 290 291 292 293 293 294 294 294 294 294 294 293 293 293 293 294 294 294 294
279 276 274 272 272 271 270 269 268 267 267 266 267 268 270 271 274 276 279 281 283 285 286 287 289 290 291 292 293 293 293 293 294 294 294 294 294 294 294 295 295 295 295 295
281 278 274 271 269 269 269 269 269 268 268 268 268 270 271 273 276 278 280 282 283 285 287 288 290 291 292 293 293 294 294 294 295 296 296 296 296 296 296 296 296 296 296 297
282 278 275 270 268 269 269 271 272 271 271 272 273 275 276 278 279 281 282 283 285 286 288 290 292 293 294 295 295 296 297 298 299 299 299 299 299 299 298 298 298 298 298 299
283 279 276 272 269 270 269 270 273 273 274 276 278 280 280 281 282 282 284 285 287 289 291 293 294 296 297 298 300 301 302 303 303 303 302 302 302 302 301 300 300 300 300 301
283 278 276 273 271 270 273 274 276 276 277 278 279 281 282 282 283 283 285 288 290 292 294 297 299 302 304 306 307 308 308 307 307 307 307 306 306 305 304 304 304 304 303 303
284 281 277 273 272 274 275 277 279 280 280 282 283 283 283 283 283 285 287 290 293 297 300 304 308 310 312 313 314 314 314 314 313 313 312 311 310 309 309 309 309 309 309 310
Height
5799 5805 5810 5815 5818 5823 5826 5830 5833 5837 5838 5839 5842 5845 5849 5850 5851 5853 5855 5856 5858 5860 5862 5863 5864 5865 5866 5866 5865 5864 5863 5861 5859 5856 5854 5851 5847 5844 5841 5837 5834 5831 5830 5829
5794 5799 5804 5807 5810 5814 5819 5823 5828 5833 5833 5834 5835 5838 5843 5845 5847 5848 5850 5851 5852 5854 5856 5857 5858 5859 5860 5860 5859 5859 5857 5856 5854 5850 5848 5845 5841 5838 5833 5828 5824 5820 5820 5821
5787 5794 5797 5800 5804 5808 5812 5817 5821 5825 5827 5827 5829 5833 5837 5840 5841 5843 5844 5845 5846 5848 5849 5850 5851 5852 5853 5853 5853 5852 5851 5849 5847 5844 5840 5837 5833 5828 5825 5821 5818 5815 5813 5813
5779 5785 5790 5794 5798 5802 5806 5810 5813 5816 5819 5820 5823 5825 5831 5834 5835 5837 5838 5838 5839 5840 5842 5844 5845 5846 5846 5846 5846 5845 5844 5842 5839 5837 5833 5829 5824 5819 5815 5813 5810 5808 5806 5805
5774 5779 5784 5788 5793 5796 5800 5802 5805 5808 5811 5814 5816 5819 5825 5828 5829 5831 5831 5831 5832 5834 5835 5837 5838 5839 5839 5839 5838 5837 5836 5834 5832 5829 5826 5821 5816 5811 5807 5804 5802 5799 5799 5798
5767 5772 5777 5782 5786 5789 5792 5795 5798 5801 5805 5809 5812 5814 5817 5821 5823 5824 5825 5825 5826 5827 5828 5830 5831 5832 5832 5832 5831 5830 5828 5826 5824 5821 5817 5812 5807 5802 5798 5797 5795 5793 5791 5790
5762 5767 5771 5775 5779 5782 5786 5790 5793 5796 5799 5804 5807 5808 5811 5813 5815 5817 5817 5818 5819 5820 5821 5823 5824 5825 5825 5825 5824 5822 5820 5818 5816 5813 5808 5802 5798 5794 5791 5789 5788 5786 5785 5783
5758 5763 5767 5770 5775 5778 5781 5785 5789 5792 5795 5799 5801 5802 5805 5806 5808 5809 5810 5811 5812 5813 5815 5816 5817 5818 5818 5817 5816 5815 5813 5810 5807 5804 5800 5795 5791 5788 5784 5783 5781 5779 5777 5774
5754 5759 5763 5767 5771 5775 5777 5781 5785 5787 5790 5792 5794 5796 5798 5799 5801 5802 5804 5805 5806 5807 5808 5809 5810 5811 5810 5810 5809 5807 5805 5802 5799 5795 5792 5788 5784 5781 5778 5776 5773 5771 5768 5765
5750 5754 5759 5763 5767 5770 5774 5777 5780 5782 5784 5786 5789 5791 5793 5794 5795 5796 5798 5799 5800 5801 5802 5803 5803 5803 5803 5802 5800 5798 5796 5793 5790 5786 5783 5779 5776 5773 5770 5767 5764 5761 5758 5754
5747 5751 5755 5759 5763 5766 5769 5772 5775 5777 5780 5782 5784 5788 5788 5789 5790 5791 5792 5793 5794 5795 5796 5796 5796 5795 5794 5793 5791 5789 5787 5784 5780 5777 5773 5770 5766 5763 5759 5756 5753 5749 5746 5742
5745 5749 5752 5755 5758 5761 5764 5767 5770 5773 5775 5778 5780 5784 5783 5784 5785 5786 5786 5787 5787 5788 5788 5788 5788 5787 5786 5785 5783 5780 5778 5774 5771 5767 5763 5759 5755 5752 5748 5744 5741 5737 5732 5728
5743 5747 5750 5752 5756 5757 5759 5762 5765 5768 5770 5772 5775 5779 5777 5778 5779 5779 5780 5780 5780 5780 5780 5779 5779 5778 5777 5776 5774 5771 5768 5765 5761 5757 5753 5749 5744 5740 5736 5732 5727 5723 5718 5713
5740 5742 5746 5749 5751 5753 5755 5757 5760 5763 5764 5766 5768 5770 5770 5771 5771 5772 5772 5772 5772 5771 5771 5770 5769 5768 5767 5765 5763 5761 5758 5754 5750 5746 5742 5737 5732 5728 5723 5718 5713 5708 5703 5698
5736 5738 5740 5742 5745 5747 5749 5751 5754 5756 5757 5759 5760 5761 5762 5763 5763 5763 5763 5763 5762 5762 5761 5760 5759 5758 5756 5754 5751 5749 5746 5742 5738 5734 5729 5724 5719 5714 5709 5704 5699 5693 5688 5683
5730 5732 5734 5736 5738 5740 5742 5745 5747 5748 5749 5751 5752 5754 5754 5754 5754 5754 5754 5753 5753 5752 5751 5750 5748 5746 5744 5742 5739 5735 5732 5728 5724 5720 5715 5710 5705 5700 5695 5690 5684 5679 5674 5669
5724 5726 5728 5730 5731 5732 5735 5737 5739 5740 5741 5742 5744 5745 5744 5745 5745 5744 5744 5743 5742 5741 5740 5739 5737 5734 5732 5729 5725 5721 5718 5714 5709 5705 5700 5696 5691 5685 5680 5675 5670 5665 5660 5655
5717 5719 5721 5722 5724 5725 5729 5729 5730 5731 5732 5733 5734 5735 5735 5735 5735 5734 5733 5733 5731 5730 5728 5726 5724 5721 5718 5715 5711 5707 5703 5699 5694 5690 5685 5680 5675 5671 5666 5661 5656 5651 5646 5642
5710 5711 5712 5714 5714 5716 5719 5720 5721 5723 5724 5724 5725 5725 5725 5725 5725 5724 5723 5722 5720 5719 5717 5714 5711 5708 5705 5701 5697 5693 5689 5684 5680 5675 5671 5666 5661 5656 5652 5647 5642 5638 5634 5629
5704 5704 5705 5705 5706 5708 5711 5711 5712 5714 5715 5716 5716 5716 5716 5716 5716 5715 5713 5711 5710 5707 5705 5702 5699 5696 5692 5689 5684 5680 5675 5671 5666 5662 5657 5652 5648 5643 5639 5634 5630 5626 5622 5617
5698 5698 5698 5699 5699 5700 5702 5702 5704 5707 5708 5707 5707 5707 5707 5707 5706 5705 5703 5701 5699 5697 5695 5692 5688 5685 5681 5677 5672 5667 5663 5658 5653 5649 5644 5640 5636 5631 5627 5623 5618 5614 5610 5606
5693 5693 5693 5693 5694 5697 5695 5696 5698 5698 5698 5698 5698 5698 5698 5698 5697 5696 5694 5692 5690 5687 5685 5681 5678 5674 5670 5665 5661 5656 5652 5647 5643 5638 5634 5629 5625 5620 5616 5612 5607 5603 5599 5595
5688 5689 5688 5689 5691 5690 5690 5690 5691 5691 5691 5691 5691 5691 5690 5690 5688 5687 5685 5683 5681 5678 5675 5672 5668 5664 5660 5655 5651 5647 5642 5638 5633 5629 5624 5619 5615 5610 5605 5601 5597 5593 5589 5585
5684 5683 5684 5684 5684 5684 5685 5685 5686 5685 5685 5685 5684 5684 5683 5681 5680 5678 5677 5675 5672 5669 5666 5663 5659 5655 5651 5647 5643 5638 5634 5629 5625 5620 5615 5610 5605 5600 5595 5591 5587 5583 5580 5576
5680 5679 5679 5679 5680 5680 5680 5680 5680 5680 5679 5678 5677 5676 5675 5673 5672 5670 5669 5667 5664 5662 5659 5655 5652 5648 5644 5640 5636 5631 5627 5622 5616 5611 5605 5600 5595 5590 5586 5582 5579 5575 5572 5569
5675 5675 5675 5675 5675 5675 5675 5675 5674 5673 5672 5671 5670 5669 5667 5666 5665 5664 5662 5660 5658 5656 5653 5650 5647 5643 5639 5635 5630 5625 5620 5614 5608 5602 5597 5592 5587 5583 5579 5575 5572 5569 5567 5564